�N����,����,�~����,�C��,���x,�C��,����,���ϕ���,�ő�u�ԕ���,�ő厞����,���˗�,�I�_���x,�n�����x,�ő啗���N��,DTYPE
"18/09/03","00:10",0.0,21.9,93.2,1004.5,295.3,1.1,1.6,326.0,0.00,20.8,25.7,"00:01:04",1
"18/09/03","00:20",0.0,21.8,93.4,1005.0,306.7,1.1,1.4,318.5,0.00,20.7,25.6,"00:15:36",1
"18/09/03","00:30",0.0,21.7,93.4,1005.0,327.4,1.6,2.0,320.7,0.00,20.6,25.4,"00:28:00",1
"18/09/03","00:40",0.0,21.6,93.9,1004.5,323.3,1.5,1.8,329.6,0.00,20.6,25.6,"00:30:56",1
"18/09/03","00:50",0.0,21.5,93.8,1004.8,300.2,1.1,1.4,314.5,0.00,20.5,25.6,"00:42:16",1
"18/09/03","01:00",0.0,21.5,94.4,1004.5,300.5,1.2,1.6,323.3,0.00,20.6,25.4,"00:51:28",1
"18/09/03","01:10",0.0,21.6,94.2,1004.5,289.2,1.1,1.3,297.0,0.00,20.7,25.4,"01:07:12",1
"18/09/03","01:20",0.0,21.5,94.3,1004.8,306.0,1.2,1.7,319.1,0.00,20.6,25.3,"01:13:44",1
"18/09/03","01:30",0.0,21.5,94.6,1004.3,318.0,1.2,1.7,323.1,0.00,20.6,25.2,"01:24:40",1
"18/09/03","01:40",0.0,21.3,94.3,1004.5,313.8,1.1,1.9,326.4,0.00,20.4,25.0,"01:37:52",1
"18/09/03","01:50",0.0,21.2,94.5,1004.3,314.4,1.2,1.8,312.3,0.00,20.3,25.2,"01:40:16",1
"18/09/03","02:00",0.0,21.1,95.0,1004.8,303.9,1.0,1.4,313.5,0.00,20.3,25.0,"01:58:48",1
"18/09/03","02:10",0.0,21.0,94.6,1004.5,317.0,1.1,1.7,316.4,0.00,20.1,25.0,"02:00:48",1
"18/09/03","02:20",0.0,21.1,95.2,1004.5,317.2,1.5,2.0,316.8,0.00,20.3,24.9,"02:11:28",1
"18/09/03","02:30",0.0,21.2,95.4,1004.3,303.6,1.2,1.7,323.4,0.00,20.5,24.9,"02:24:00",1
"18/09/03","02:40",0.0,21.2,94.9,1004.8,298.1,1.1,1.3,301.2,0.00,20.4,24.9,"02:32:48",1
"18/09/03","02:50",0.0,21.0,95.1,1004.5,307.0,1.0,1.3,314.0,0.00,20.2,25.0,"02:48:24",1
"18/09/03","03:00",0.0,20.9,95.3,1004.8,317.3,1.2,1.4,318.6,0.00,20.2,25.0,"02:52:08",1
"18/09/03","03:10",0.0,20.8,95.3,1004.3,311.6,1.2,1.6,322.4,0.00,20.1,24.9,"03:06:32",1
"18/09/03","03:20",0.0,20.8,95.3,1004.5,309.2,1.1,1.6,322.5,0.00,20.1,24.9,"03:10:56",1
"18/09/03","03:30",0.0,20.9,96.0,1004.3,300.6,1.0,1.4,320.1,0.00,20.3,24.8,"03:28:40",1
"18/09/03","03:40",0.0,20.8,95.5,1004.8,302.8,1.0,1.6,317.9,0.00,20.1,24.7,"03:34:48",1
"18/09/03","03:50",0.0,20.7,95.6,1004.5,315.6,1.0,1.4,319.4,0.00,20.0,24.6,"03:41:28",1
"18/09/03","04:00",0.0,20.7,95.8,1004.8,294.4,1.0,1.3,305.3,0.00,20.0,24.8,"03:57:12",1
"18/09/03","04:10",0.0,20.9,95.9,1004.8,307.2,1.2,1.6,319.4,0.00,20.3,24.7,"04:00:48",1
"18/09/03","04:20",0.0,21.0,96.0,1005.0,310.0,1.2,1.9,317.8,0.00,20.4,24.8,"04:18:32",1
"18/09/03","04:30",0.0,21.0,95.8,1004.8,309.1,1.3,2.2,328.8,0.00,20.3,24.5,"04:20:40",1
"18/09/03","04:40",0.0,20.9,95.6,1005.0,302.6,0.7,1.3,324.1,0.00,20.2,24.4,"04:33:20",1
"18/09/03","04:50",0.0,20.8,95.6,1004.8,308.3,1.0,2.0,323.0,0.00,20.1,24.5,"04:46:00",1
"18/09/03","05:00",0.0,20.7,95.9,1005.0,321.2,1.7,1.9,328.6,0.00,20.1,24.6,"04:56:08",1
"18/09/03","05:10",0.0,20.5,95.8,1005.0,318.7,1.3,1.7,320.2,0.00,19.8,24.4,"05:00:16",1
"18/09/03","05:20",0.0,20.5,95.7,1004.5,321.8,0.6,1.4,329.1,0.00,19.8,24.5,"05:11:12",1
"18/09/03","05:30",0.0,20.5,96.2,1005.0,308.5,1.1,1.4,321.9,0.00,19.9,24.2,"05:27:36",1
"18/09/03","05:40",0.0,20.7,96.3,1005.5,298.4,1.2,1.6,310.7,0.00,20.1,24.3,"05:31:20",1
"18/09/03","05:50",0.0,20.6,96.3,1005.0,304.2,1.1,1.8,314.6,0.00,20.0,24.5,"05:40:24",1
"18/09/03","06:00",0.0,20.6,96.3,1005.0,300.9,1.0,1.6,311.9,0.00,20.0,24.2,"05:50:56",1
"18/09/03","06:10",0.0,20.8,96.3,1005.2,296.3,1.1,1.9,331.3,0.00,20.2,24.3,"06:00:16",1
"18/09/03","06:20",0.0,20.9,96.4,1005.0,308.4,1.2,1.6,309.6,0.00,20.3,24.2,"06:15:52",1
"18/09/03","06:30",0.0,21.2,95.9,1005.0,322.2,1.2,1.8,330.3,0.00,20.6,24.2,"06:27:44",1
"18/09/03","06:40",0.0,21.6,95.7,1005.2,322.4,0.7,1.2,334.9,0.01,20.9,24.1,"06:30:24",1
"18/09/03","06:50",0.0,21.7,95.5,1004.8,337.0,1.1,1.6,341.0,0.02,21.0,24.2,"06:49:52",1
"18/09/03","07:00",0.0,22.6,94.6,1005.0,341.6,0.8,1.3,338.6,0.03,21.7,24.2,"06:50:08",1
"18/09/03","07:10",0.0,23.5,92.8,1004.5,348.0,0.3,1.0,323.2,0.04,22.3,24.2,"07:00:08",1
"18/09/03","07:20",0.0,24.4,89.3,1004.8,5.1,0.3,1.1,340.1,0.05,22.6,24.4,"07:12:48",1
"18/09/03","07:30",0.0,25.0,85.8,1004.5,357.6,0.3,0.9,357.3,0.07,22.5,24.6,"07:24:32",1
"18/09/03","07:40",0.0,25.4,83.6,1004.5,358.6,0.2,0.6,354.2,0.10,22.5,24.3,"07:32:00",1
"18/09/03","07:50",0.0,26.0,80.4,1005.0,187.0,0.2,0.8,233.5,0.14,22.4,24.6,"07:40:40",1
"18/09/03","08:00",0.0,26.2,81.0,1004.5,134.5,0.3,1.2,101.0,0.17,22.7,24.6,"07:56:40",1
"18/09/03","08:10",0.0,26.3,79.4,1004.3,167.7,0.8,2.0,129.9,0.19,22.5,24.7,"08:00:56",1
"18/09/03","08:20",0.0,26.8,78.2,1003.8,173.4,1.0,2.2,123.9,0.22,22.7,25.0,"08:16:08",1
"18/09/03","08:30",0.0,27.1,77.0,1003.8,123.3,1.0,3.7,128.1,0.25,22.8,25.2,"08:23:36",1
"18/09/03","08:40",0.0,27.5,77.4,1003.8,126.7,1.1,2.2,115.1,0.28,23.2,25.1,"08:34:08",1
"18/09/03","08:50",0.0,27.1,75.2,1003.8,105.0,0.8,2.8,126.7,0.25,22.4,25.3,"08:48:56",1
"18/09/03","09:00",0.0,27.7,77.3,1003.8,139.4,1.0,3.2,29.4,0.25,23.4,25.5,"08:59:12",1
"18/09/03","09:10",0.0,27.5,75.4,1003.8,146.4,1.0,3.3,142.4,0.27,22.8,25.6,"09:00:56",1
"18/09/03","09:20",0.0,28.5,73.1,1004.5,114.3,1.0,2.1,129.2,0.40,23.3,25.9,"09:16:32",1
"18/09/03","09:30",0.0,28.3,73.6,1004.5,124.6,1.1,2.4,130.1,0.44,23.2,26.2,"09:24:32",1
"18/09/03","09:40",0.0,28.5,71.6,1005.0,86.6,1.2,3.2,44.4,0.42,22.9,26.2,"09:33:12",1
"18/09/03","09:50",0.0,28.8,70.2,1004.8,116.3,1.0,2.4,150.6,0.45,22.9,26.4,"09:45:28",1
"18/09/03","10:00",0.0,28.3,71.0,1004.8,78.6,0.8,2.0,71.9,0.24,22.6,26.5,"09:50:24",1
"18/09/03","10:10",0.0,29.1,71.1,1004.5,86.9,1.1,2.8,66.3,0.44,23.4,26.7,"10:03:12",1
"18/09/03","10:20",0.0,28.8,71.5,1003.8,110.5,1.1,2.7,148.2,0.30,23.2,27.1,"10:11:44",1
"18/09/03","10:30",0.0,28.1,71.7,1004.3,127.1,1.5,3.2,152.5,0.32,22.5,27.1,"10:23:04",1
"18/09/03","10:40",0.0,29.0,68.7,1004.1,125.1,1.7,5.1,207.0,0.34,22.7,27.3,"10:38:08",1
"18/09/03","10:50",0.0,28.2,72.1,1003.6,134.5,1.5,4.2,141.8,0.14,22.7,27.4,"10:40:16",1
"18/09/03","11:00",0.0,29.1,69.9,1003.4,112.2,1.2,3.1,110.1,0.31,23.1,27.4,"10:58:24",1
"18/09/03","11:10",0.0,29.1,68.1,1003.1,76.9,1.2,4.4,122.6,0.20,22.7,27.4,"11:01:04",1
"18/09/03","11:20",0.0,29.8,65.7,1002.9,123.4,1.1,2.4,157.9,0.33,22.7,27.6,"11:12:32",1
"18/09/03","11:30",0.0,29.5,67.0,1003.4,144.1,1.3,3.4,157.3,0.31,22.8,27.7,"11:22:56",1
"18/09/03","11:40",0.0,29.3,67.4,1002.9,128.6,1.1,2.2,70.4,0.19,22.7,27.9,"11:36:40",1
"18/09/03","11:50",0.0,30.6,64.5,1002.4,71.1,1.2,2.7,140.8,0.34,23.2,27.8,"11:48:24",1
"18/09/03","12:00",0.0,30.4,63.0,1002.9,141.5,1.7,4.2,124.4,0.60,22.6,28.1,"11:58:48",1
"18/09/03","12:10",0.0,29.8,63.1,1002.9,124.1,1.2,3.2,156.3,0.20,22.1,28.1,"12:05:52",1
"18/09/03","12:20",0.0,30.5,64.7,1002.6,173.7,1.7,3.3,182.5,0.28,23.1,28.2,"12:14:40",1
"18/09/03","12:30",0.0,31.9,60.8,1002.9,103.4,1.2,3.1,141.5,0.65,23.4,28.2,"12:24:24",1
"18/09/03","12:40",0.0,31.3,60.2,1003.8,131.4,1.5,3.4,188.3,0.63,22.7,28.5,"12:35:52",1
"18/09/03","12:50",0.0,31.0,61.6,1002.9,119.8,1.5,3.6,127.6,0.29,22.8,28.8,"12:41:12",1
"18/09/03","13:00",0.0,30.8,64.8,1002.6,112.0,1.1,2.8,134.2,0.34,23.4,28.9,"12:50:40",1
"18/09/03","13:10",0.0,30.3,62.0,1002.6,100.3,1.6,3.7,125.0,0.26,22.2,29.0,"13:07:04",1
"18/09/03","13:20",0.0,30.8,64.6,1002.2,93.3,1.2,2.7,100.0,0.19,23.4,28.8,"13:18:08",1
"18/09/03","13:30",0.0,30.1,61.9,1001.5,90.2,1.3,2.5,105.0,0.14,22.0,29.1,"13:21:52",1
"18/09/03","13:40",0.0,31.1,62.2,1001.7,103.6,1.3,3.5,119.4,0.26,23.1,29.1,"13:39:52",1
"18/09/03","13:50",0.0,30.6,59.6,1001.7,91.8,1.2,2.7,101.1,0.21,21.9,29.1,"13:49:12",1
"18/09/03","14:00",0.0,31.2,58.3,1001.5,86.3,1.3,2.9,38.9,0.25,22.1,29.1,"13:53:28",1
"18/09/03","14:10",0.0,31.0,58.5,1001.0,107.6,1.2,2.6,107.3,0.22,21.9,29.1,"14:09:04",1
"18/09/03","14:20",0.0,30.7,58.5,1001.2,93.2,1.0,2.6,93.7,0.16,21.7,29.2,"14:12:40",1
"18/09/03","14:30",0.0,30.5,60.0,1000.8,102.0,1.3,2.5,141.3,0.11,21.9,29.1,"14:29:36",1
"18/09/03","14:40",0.0,31.4,59.4,1000.3,104.5,1.1,2.4,98.7,0.23,22.6,29.1,"14:31:36",1
"18/09/03","14:50",0.0,30.6,61.6,1000.3,104.8,1.2,2.7,114.7,0.21,22.4,28.9,"14:40:40",1
"18/09/03","15:00",0.0,30.4,63.1,1000.3,105.2,1.0,3.1,71.8,0.10,22.6,29.0,"14:58:00",1
"18/09/03","15:10",0.0,30.6,62.1,1000.0,64.3,1.3,2.9,3.7,0.07,22.6,29.1,"15:02:40",1
"18/09/03","15:20",0.0,30.2,63.3,1000.0,76.9,1.3,3.5,47.6,0.12,22.5,28.8,"15:12:48",1
"18/09/03","15:30",0.0,30.1,63.3,999.8,96.9,1.5,3.2,77.1,0.05,22.4,29.1,"15:26:32",1
"18/09/03","15:40",0.0,29.9,64.5,999.3,50.1,1.2,3.3,21.4,0.06,22.5,28.8,"15:35:52",1
"18/09/03","15:50",0.0,29.9,65.0,999.3,62.5,0.8,2.4,109.4,0.04,22.6,28.5,"15:45:36",1
"18/09/03","16:00",0.0,29.7,64.9,999.1,73.0,1.3,3.1,43.0,0.02,22.4,28.4,"15:52:24",1
"18/09/03","16:10",0.0,29.7,64.9,999.1,63.1,1.2,2.8,12.4,0.03,22.4,28.6,"16:00:40",1
"18/09/03","16:20",0.0,29.6,65.6,999.1,63.3,1.0,2.6,0.5,0.04,22.5,28.5,"16:13:36",1
"18/09/03","16:30",0.0,29.6,65.3,999.1,72.4,1.3,3.7,75.9,0.05,22.4,28.4,"16:20:56",1
"18/09/03","16:40",0.0,29.6,65.6,999.1,89.9,1.1,3.2,122.7,0.03,22.5,28.3,"16:38:08",1
"18/09/03","16:50",0.0,29.5,66.0,999.1,72.6,1.0,2.6,99.0,0.03,22.5,28.2,"16:40:08",1
"18/09/03","17:00",0.0,29.4,66.6,998.6,54.0,1.0,2.7,72.9,0.02,22.6,28.2,"16:56:24",1
"18/09/03","17:10",0.0,29.3,66.8,999.1,65.7,1.2,2.9,352.6,0.02,22.5,28.2,"17:05:52",1
"18/09/03","17:20",0.0,29.3,67.3,998.9,81.5,0.8,2.5,122.3,0.03,22.7,28.2,"17:10:32",1
"18/09/03","17:30",0.0,29.5,67.3,998.9,44.5,0.7,2.2,47.4,0.04,22.8,27.9,"17:22:08",1
"18/09/03","17:40",0.0,29.2,67.8,998.9,66.3,0.8,2.6,42.4,0.02,22.7,28.1,"17:37:12",1
"18/09/03","17:50",0.0,29.0,68.3,998.6,63.9,1.0,2.5,35.8,0.01,22.6,27.8,"17:40:16",1
"18/09/03","18:00",0.0,28.9,69.0,998.4,52.7,0.8,2.2,27.3,0.00,22.7,28.1,"17:58:40",1
"18/09/03","18:10",0.0,28.7,69.9,999.1,29.1,0.8,1.9,344.5,0.00,22.7,27.7,"18:00:08",1
"18/09/03","18:20",0.0,28.6,70.6,999.6,57.8,0.8,1.7,109.2,0.00,22.8,27.8,"18:10:32",1
"18/09/03","18:30",0.0,28.6,70.5,999.3,84.2,1.1,2.7,44.7,0.00,22.7,27.8,"18:22:24",1
"18/09/03","18:40",0.0,28.6,70.5,999.3,99.2,1.1,2.1,77.8,0.00,22.7,27.8,"18:34:08",1
"18/09/03","18:50",0.0,28.5,70.6,999.6,82.1,1.0,2.9,100.8,0.00,22.7,27.4,"18:41:36",1
"18/09/03","19:00",0.0,28.3,71.2,999.3,81.4,0.7,2.1,98.1,0.00,22.6,27.7,"18:52:48",1
"18/09/03","19:10",0.0,28.2,71.6,999.8,80.1,0.8,2.7,75.7,0.00,22.6,27.4,"19:04:48",1
"18/09/03","19:20",0.0,28.1,71.9,999.8,84.9,0.7,2.0,78.7,0.00,22.6,27.4,"19:16:24",1
"18/09/03","19:30",0.0,28.0,72.4,999.8,101.5,0.8,1.9,109.8,0.00,22.6,27.2,"19:28:16",1
"18/09/03","19:40",0.0,27.8,72.9,1000.0,109.9,0.7,2.1,105.2,0.00,22.5,27.1,"19:36:16",1
"18/09/03","19:50",0.0,27.8,72.6,1000.0,117.5,1.0,2.0,136.4,0.00,22.5,27.1,"19:46:24",1
"18/09/03","20:00",0.0,27.8,72.4,1000.0,99.1,1.0,2.5,67.1,0.00,22.4,27.1,"19:55:28",1
"18/09/03","20:10",0.0,27.8,72.1,1000.3,100.6,1.3,3.6,147.9,0.00,22.4,27.0,"20:02:00",1
"18/09/03","20:20",0.0,27.6,72.3,1000.0,91.7,1.2,3.7,109.9,0.00,22.2,27.1,"20:13:20",1
"18/09/03","20:30",0.0,27.5,72.8,1000.3,85.3,0.8,2.0,39.8,0.00,22.2,27.1,"20:20:48",1
"18/09/03","20:40",0.0,27.4,73.1,1000.8,96.2,0.8,2.4,89.1,0.00,22.2,27.0,"20:38:16",1
"18/09/03","20:50",0.0,27.2,73.5,1000.5,94.3,0.8,2.4,113.3,0.00,22.1,27.2,"20:42:32",1
"18/09/03","21:00",0.0,27.1,73.5,1000.3,92.9,1.1,2.9,85.1,0.00,22.0,26.8,"20:50:32",1
"18/09/03","21:10",0.0,26.8,74.7,1000.3,112.1,0.8,2.2,82.4,0.00,22.0,27.0,"21:02:32",1
"18/09/03","21:20",0.0,26.7,75.2,1000.3,99.9,0.8,2.6,124.9,0.00,22.0,26.8,"21:12:32",1
"18/09/03","21:30",0.0,26.6,75.4,1000.5,67.1,0.7,2.0,85.9,0.00,21.9,26.9,"21:27:28",1
"18/09/03","21:40",0.0,26.5,75.5,1000.8,117.3,0.7,3.9,136.9,0.00,21.9,26.7,"21:36:16",1
"18/09/03","21:50",0.0,26.4,76.0,1000.5,111.2,0.6,2.2,125.3,0.00,21.9,26.7,"21:49:20",1
"18/09/03","22:00",0.0,26.5,75.5,1000.3,147.6,1.2,4.1,116.1,0.00,21.9,26.6,"21:51:04",1
"18/09/03","22:10",0.0,26.6,75.2,1000.5,94.6,1.0,2.2,123.6,0.00,21.9,26.5,"22:01:28",1
"18/09/03","22:20",0.0,26.4,75.8,1000.3,96.7,0.6,2.2,107.3,0.00,21.8,26.5,"22:17:20",1
"18/09/03","22:30",0.0,26.3,76.6,999.8,97.2,0.8,2.8,84.7,0.00,21.9,26.4,"22:26:56",1
"18/09/03","22:40",0.0,26.3,77.0,999.6,132.3,0.5,1.6,112.3,0.00,22.0,26.5,"22:31:20",1
"18/09/03","22:50",0.0,26.2,77.3,999.8,90.9,0.6,1.3,115.8,0.00,22.0,26.5,"22:43:04",1
"18/09/03","23:00",0.0,26.1,77.6,1000.0,339.1,0.3,1.1,20.4,0.00,21.9,26.3,"22:54:16",1
"18/09/03","23:10",0.0,26.0,78.0,999.8,336.4,0.3,1.0,96.8,0.00,21.9,26.2,"23:00:16",1
"18/09/03","23:20",0.0,26.1,78.3,999.8,43.6,0.5,1.4,61.8,0.00,22.1,26.3,"23:17:44",1
"18/09/03","23:30",0.0,26.1,78.3,999.6,335.4,0.6,1.6,337.3,0.00,22.1,26.4,"23:22:24",1
"18/09/03","23:40",0.0,26.1,78.6,999.8,126.2,0.3,1.4,134.4,0.00,22.1,26.2,"23:32:32",1
"18/09/03","23:50",0.0,26.2,77.9,999.3,136.6,0.7,2.0,106.8,0.00,22.1,26.4,"23:45:52",1
"18/09/03","24:00",0.0,26.3,77.7,999.1,136.6,0.6,2.0,125.7,0.00,22.1,26.1,"23:50:08",1
